TimePST,TemperatureF,Dew PointF,Humidity,Sea Level PressureIn,VisibilityMPH,Wind Direction,Wind SpeedMPH,Gust SpeedMPH,PrecipitationIn,Events,Conditions,WindDirDegrees,DateUTC
12:15 AM,51.8,37.4,58,30.16,10.0,East,9.2,-,N/A,,Clear,80,2012-11-14 08:15:00
12:35 AM,50.0,37.4,62,30.15,10.0,East,8.1,-,N/A,,Clear,80,2012-11-14 08:35:00
12:55 AM,51.8,35.6,54,30.16,10.0,Calm,Calm,-,N/A,,Clear,0,2012-11-14 08:55:00
1:15 AM,53.6,35.6,51,30.16,10.0,Calm,Calm,-,N/A,,Clear,0,2012-11-14 09:15:00
1:55 AM,50.0,35.6,58,30.16,10.0,East,4.6,-,N/A,,Clear,100,2012-11-14 09:55:00
2:15 AM,51.8,35.6,54,30.16,10.0,East,4.6,-,N/A,,Clear,100,2012-11-14 10:15:00
2:35 AM,53.6,35.6,51,30.15,10.0,ESE,5.8,-,N/A,,Clear,110,2012-11-14 10:35:00
2:55 AM,50.0,35.6,58,30.15,10.0,ESE,3.5,-,N/A,,Clear,120,2012-11-14 10:55:00
3:15 AM,50.0,35.6,58,30.15,10.0,Calm,Calm,-,N/A,,Clear,0,2012-11-14 11:15:00
3:35 AM,51.8,35.6,54,30.15,10.0,Calm,Calm,-,N/A,,Clear,0,2012-11-14 11:35:00
3:55 AM,53.6,35.6,51,30.14,10.0,Calm,Calm,-,N/A,,Clear,0,2012-11-14 11:55:00
4:15 AM,53.6,35.6,51,30.14,10.0,Calm,Calm,-,N/A,,Partly Cloudy,0,2012-11-14 12:15:00
4:35 AM,53.6,35.6,51,30.14,10.0,Calm,Calm,-,N/A,,Scattered Clouds,0,2012-11-14 12:35:00
4:55 AM,53.6,35.6,51,30.14,10.0,Calm,Calm,-,N/A,,Partly Cloudy,0,2012-11-14 12:55:00
5:15 AM,53.6,35.6,51,30.14,10.0,Calm,Calm,-,N/A,,Partly Cloudy,0,2012-11-14 13:15:00
5:35 AM,51.8,35.6,54,30.13,10.0,Calm,Calm,-,N/A,,Clear,0,2012-11-14 13:35:00
5:55 AM,51.8,33.8,50,30.13,10.0,Calm,Calm,-,N/A,,Clear,0,2012-11-14 13:55:00
6:15 AM,51.8,33.8,50,30.14,10.0,Calm,Calm,-,N/A,,Clear,0,2012-11-14 14:15:00
6:35 AM,51.8,33.8,50,30.14,10.0,Calm,Calm,-,N/A,,Clear,0,2012-11-14 14:35:00
6:55 AM,50.0,35.6,58,30.14,10.0,Calm,Calm,-,N/A,,Clear,0,2012-11-14 14:55:00
7:15 AM,50.0,32.0,50,30.14,10.0,East,8.1,-,N/A,,Clear,90,2012-11-14 15:15:00
7:35 AM,50.0,33.8,54,30.14,10.0,Calm,Calm,-,N/A,,Clear,0,2012-11-14 15:35:00
7:55 AM,55.4,35.6,47,30.15,10.0,Calm,Calm,-,N/A,,Clear,0,2012-11-14 15:55:00
8:15 AM,57.2,35.6,44,30.15,10.0,Calm,Calm,-,N/A,,Clear,0,2012-11-14 16:15:00
8:35 AM,57.2,35.6,44,30.15,10.0,Calm,Calm,-,N/A,,Clear,0,2012-11-14 16:35:00
8:55 AM,57.2,37.4,48,30.16,10.0,Calm,Calm,-,N/A,,Clear,0,2012-11-14 16:55:00
9:15 AM,57.2,37.4,48,30.15,10.0,Calm,Calm,-,N/A,,Clear,0,2012-11-14 17:15:00
9:35 AM,59.0,37.4,45,30.16,10.0,Calm,Calm,-,N/A,,Clear,0,2012-11-14 17:35:00
9:55 AM,59.0,37.4,45,30.17,10.0,Calm,Calm,-,N/A,,Clear,0,2012-11-14 17:55:00
10:15 AM,57.2,39.2,51,30.17,10.0,Calm,Calm,-,N/A,,Clear,0,2012-11-14 18:15:00
10:55 AM,59.0,39.2,48,30.17,10.0,Calm,Calm,-,N/A,,Clear,0,2012-11-14 18:55:00
11:15 AM,59.0,39.2,48,30.16,10.0,Calm,Calm,-,N/A,,Clear,0,2012-11-14 19:15:00
11:35 AM,59.0,37.4,45,30.16,10.0,Calm,Calm,-,N/A,,Clear,0,2012-11-14 19:35:00
11:55 AM,60.8,37.4,42,30.15,10.0,Calm,Calm,-,N/A,,Clear,0,2012-11-14 19:55:00
12:15 PM,60.8,39.2,45,30.15,10.0,Calm,Calm,-,N/A,,Clear,0,2012-11-14 20:15:00
12:35 PM,60.8,37.4,42,30.14,10.0,Calm,Calm,-,N/A,,Clear,0,2012-11-14 20:35:00
12:55 PM,62.6,37.4,39,30.13,10.0,Calm,Calm,-,N/A,,Clear,0,2012-11-14 20:55:00
1:15 PM,62.6,37.4,39,30.13,10.0,Calm,Calm,-,N/A,,Clear,0,2012-11-14 21:15:00
1:35 PM,62.6,37.4,39,30.12,10.0,Calm,Calm,-,N/A,,Clear,0,2012-11-14 21:35:00
1:55 PM,64.4,39.2,40,30.11,10.0,Calm,Calm,-,N/A,,Clear,0,2012-11-14 21:55:00
2:15 PM,64.4,37.4,37,30.11,10.0,Calm,Calm,-,N/A,,Clear,0,2012-11-14 22:15:00
2:35 PM,64.4,37.4,37,30.10,10.0,Calm,Calm,-,N/A,,Clear,0,2012-11-14 22:35:00
2:55 PM,64.4,39.2,40,30.10,10.0,Calm,Calm,-,N/A,,Clear,0,2012-11-14 22:55:00
3:15 PM,64.4,39.2,40,30.10,10.0,Calm,Calm,-,N/A,,Clear,0,2012-11-14 23:15:00
3:35 PM,64.4,39.2,40,30.10,10.0,Calm,Calm,-,N/A,,Clear,0,2012-11-14 23:35:00
3:55 PM,62.6,39.2,42,30.10,10.0,Calm,Calm,-,N/A,,Clear,0,2012-11-14 23:55:00
4:15 PM,62.6,39.2,42,30.10,10.0,Calm,Calm,-,N/A,,Clear,0,2012-11-15 00:15:00
4:35 PM,59.0,41.0,51,30.10,10.0,Calm,Calm,-,N/A,,Clear,0,2012-11-15 00:35:00
4:55 PM,59.0,41.0,51,30.10,10.0,Calm,Calm,-,N/A,,Clear,0,2012-11-15 00:55:00
5:15 PM,57.2,42.8,59,30.10,10.0,Calm,Calm,-,N/A,,Clear,0,2012-11-15 01:15:00
5:35 PM,57.2,42.8,59,30.10,10.0,Calm,Calm,-,N/A,,Clear,0,2012-11-15 01:35:00
5:55 PM,57.2,42.8,59,30.10,10.0,Calm,Calm,-,N/A,,Clear,0,2012-11-15 01:55:00
6:15 PM,55.4,42.8,63,30.10,10.0,Calm,Calm,-,N/A,,Clear,0,2012-11-15 02:15:00
6:35 PM,55.4,41.0,58,30.10,10.0,East,8.1,-,N/A,,Clear,80,2012-11-15 02:35:00
6:55 PM,57.2,39.2,51,30.10,10.0,East,8.1,-,N/A,,Clear,80,2012-11-15 02:55:00
7:15 PM,57.2,39.2,51,30.10,10.0,ENE,10.4,-,N/A,,Clear,70,2012-11-15 03:15:00
7:35 PM,55.4,37.4,51,30.10,10.0,ENE,11.5,-,N/A,,Clear,70,2012-11-15 03:35:00
7:55 PM,55.4,37.4,51,30.10,10.0,Calm,Calm,-,N/A,,Clear,0,2012-11-15 03:55:00
8:15 PM,55.4,35.6,47,30.10,10.0,East,5.8,-,N/A,,Clear,90,2012-11-15 04:15:00
8:35 PM,55.4,35.6,47,30.10,10.0,East,6.9,-,N/A,,Clear,90,2012-11-15 04:35:00
8:55 PM,53.6,33.8,47,30.10,10.0,East,4.6,-,N/A,,Clear,100,2012-11-15 04:55:00
9:15 PM,53.6,33.8,47,30.10,10.0,Calm,Calm,-,N/A,,Clear,0,2012-11-15 05:15:00
9:35 PM,55.4,32.0,41,30.10,10.0,Calm,Calm,-,N/A,,Clear,0,2012-11-15 05:35:00
9:55 PM,53.6,30.2,41,30.10,10.0,Calm,Calm,-,N/A,,Clear,0,2012-11-15 05:55:00
10:15 PM,51.8,32.0,47,30.09,10.0,East,9.2,-,N/A,,Clear,80,2012-11-15 06:15:00
10:55 PM,50.0,28.4,43,30.08,10.0,East,8.1,-,N/A,,Clear,90,2012-11-15 06:55:00
11:15 PM,53.6,28.4,38,30.08,10.0,East,5.8,-,N/A,,Clear,90,2012-11-15 07:15:00
11:35 PM,53.6,26.6,35,30.08,10.0,East,6.9,-,N/A,,Clear,90,2012-11-15 07:35:00
11:55 PM,53.6,24.8,33,30.08,10.0,East,9.2,-,N/A,,Clear,80,2012-11-15 07:55:00